FW7807 Weather Reports


time (UTC)temp
C
wind
direction
speed
KPH
gust
KPH
rain 1hr
cm
rain 24hr
cm
rain mn
cm
humidity
%
barometer
mb
20260507013044 15 30 4.8 8.0 0.00 0.00 0.00 80 1010.8
20260507011539 15 65 3.2 9.7 0.00 0.00 0.00 80 1010.7
20260507010042 16 42 8.0 11.3 0.00 0.00 0.00 80 1010.7
20260507004540 16 58 8.0 11.3 0.00 0.00 0.00 80 1010.7
20260507003039 16 44 6.4 14.5 0.00 0.00 0.00 81 1010.9
20260507001555 16 34 8.0 16.1 0.00 0.00 0.00 81 1010.9
20260507000041 16 32 6.4 12.9 0.00 0.00 0.00 81 1011.1
20260506234541 16 57 9.7 14.5 0.00 0.00 0.00 82 1011.2
20260506233044 16 36 6.4 9.7 0.00 0.00 0.00 82 1011.3
20260506231544 16 38 6.4 9.7 0.00 0.00 0.00 81 1011.2
20260506230037 16 46 4.8 8.0 0.00 0.00 0.00 82 1011.4
20260506224535 16 44 4.8 9.7 0.00 0.00 0.00 82 1011.3
20260506223058 16 45 6.4 9.7 0.00 0.00 0.00 81 1011.4
20260506221539 17 40 3.2 6.4 0.00 0.00 0.00 81 1011.3
20260506220038 17 84 4.8 9.7 0.00 0.00 0.00 81 1011.4
20260506214540 17 88 6.4 9.7 0.00 0.00 0.00 81 1011.5
20260506213038 17 100 4.8 6.4 0.00 0.00 0.00 81 1011.6
20260506211545 17 96 4.8 9.7 0.00 0.00 0.00 81 1011.8
20260506210042 17 89 4.8 11.3 0.00 0.00 0.00 81 1011.7
20260506204538 17 105 8.0 11.3 0.00 0.00 0.00 81 1011.5
20260506203043 17 98 6.4 14.5 0.00 0.00 0.00 81 1011.5
20260506201537 17 88 8.0 14.5 0.00 0.00 0.00 80 1011.2
20260506200108 17 90 8.0 14.5 0.00 0.00 0.00 80 1011.2
20260506194542 17 96 8.0 17.7 0.00 0.00 0.00 80 1011.0
20260506193040 17 107 9.7 16.1 0.00 0.00 0.00 80 1010.9
20260506191538 17 105 12.9 17.7 0.00 0.00 0.00 79 1010.8
20260506190038 18 132 9.7 20.9 0.00 0.00 0.00 79 1010.4
20260506184535 18 105 12.9 19.3 0.00 0.00 0.00 78 1010.4
20260506183041 18 101 16.1 20.9 0.00 0.00 0.00 78 1010.3
20260506181542 18 109 9.7 27.4 0.00 0.00 0.00 77 1010.1
20260506180048 18 119 19.3 27.4 0.00 0.00 0.00 77 1010.1
20260506174538 18 124 12.9 25.7 0.00 0.00 0.00 76 1010.2
20260506173037 18 104 20.9 29.0 0.00 0.00 0.00 75 1010.3
20260506171547 18 173 16.1 27.4 0.00 0.00 0.00 74 1010.2
20260506170042 18 110 19.3 33.8 0.00 0.00 0.00 73 1010.1
20260506164539 19 108 19.3 33.8 0.00 0.00 0.00 73 1009.8
20260506163046 19 109 22.5 32.2 0.00 0.00 0.00 73 1009.7
20260506161549 19 106 20.9 33.8 0.00 0.00 0.00 72 1009.8
20260506160037 19 144 20.9 40.2 0.00 0.00 0.00 71 1009.9
20260506154537 19 111 24.1 38.6 0.00 0.00 0.00 70 1009.8
20260506153043 20 115 27.4 38.6 0.00 0.00 0.00 71 1009.8
20260506151540 20 130 22.5 38.6 0.00 0.00 0.00 71 1009.8
20260506150038 20 135 24.1 37.0 0.00 0.00 0.00 70 1009.8
20260506144538 20 107 27.4 41.8 0.00 0.00 0.00 69 1010.1
20260506143042 20 104 25.7 41.8 0.00 0.00 0.00 70 1010.2
20260506141539 20 109 27.4 38.6 0.00 0.00 0.00 70 1010.2
20260506140045 20 119 30.6 43.5 0.00 0.00 0.00 71 1010.5
20260506134608 20 98 27.4 43.5 0.00 0.00 0.00 71 1010.3
20260506133036 20 114 27.4 48.3 0.00 0.00 0.00 72 1010.4
20260506131543 20 135 27.4 45.1 0.00 0.00 0.00 71 1010.5
20260506130041 20 150 25.7 40.2 0.00 0.00 0.00 69 1010.7
20260506124540 20 103 24.1 40.2 0.00 0.00 0.00 69 1010.6
20260506123044 20 148 27.4 40.2 0.00 0.00 0.00 69 1010.7
20260506121539 20 185 19.3 37.0 0.00 0.00 0.00 70 1010.9
20260506120043 20 94 24.1 37.0 0.00 0.00 0.00 69 1011.1
20260506114547 20 93 24.1 40.2 0.00 0.00 0.00 69 1011.0
20260506113042 20 146 27.4 40.2 0.00 0.00 0.00 70 1011.1
20260506111539 20 95 24.1 37.0 0.00 0.00 0.00 69 1011.1
20260506110038 20 103 27.4 37.0 0.00 0.00 0.00 70 1011.2
20260506104536 20 85 24.1 33.8 0.00 0.00 0.00 69 1011.4
20260506103036 20 101 24.1 33.8 0.00 0.00 0.00 68 1011.4
20260506101541 20 132 20.9 35.4 0.00 0.00 0.00 68 1011.4
20260506100039 20 121 24.1 33.8 0.00 0.00 0.00 68 1011.3
20260506094539 20 112 22.5 32.2 0.00 0.00 0.00 68 1011.2
20260506093037 20 110 20.9 32.2 0.00 0.00 0.00 68 1011.2
20260506091537 20 87 14.5 33.8 0.00 0.00 0.00 68 1010.9
20260506090042 20 90 16.1 29.0 0.00 0.00 0.00 67 1010.8
20260506084541 20 90 20.9 29.0 0.00 0.00 0.00 68 1010.9
20260506083042 19 81 16.1 22.5 0.00 0.00 0.00 69 1010.9
20260506081546 19 57 14.5 22.5 0.00 0.00 0.00 71 1010.8
20260506073041 18 34 4.8 12.9 0.00 0.00 0.00 74 1010.8
20260506071543 17 36 1.6 8.0 0.00 0.00 0.00 75 1010.7
20260506061540 14 0 1.6 6.4 0.00 0.00 0.00 82 1010.8
20260506044538 13 12 3.2 6.4 0.00 0.00 0.00 85 1009.9
20260506043040 13 60 3.2 8.0 0.00 0.00 0.00 85 1009.9
20260506041540 13 41 1.6 4.8 0.00 0.00 0.00 85 1009.7
20260506040039 13 62 1.6 6.4 0.00 0.00 0.00 86 1009.7
20260506034537 13 103 1.6 4.8 0.00 0.00 0.00 85 1009.8
20260506033036 13 105 0.0 3.2 0.00 0.00 0.00 85 1009.8
20260506031542 13 0 0.0 3.2 0.00 0.00 0.00 84 1009.8
20260506030040 14 0 0.0 3.2 0.00 0.00 0.00 85 1009.7
20260506024548 14 103 3.2 6.4 0.00 0.00 0.00 84 1009.6
20260506023045 15 0 1.6 3.2 0.00 0.00 0.00 84 1009.5
20260506021537 14 163 3.2 8.0 0.00 0.00 0.00 83 1009.7
20260506020048 15 264 1.6 6.4 0.00 0.00 0.00 83 1009.6
20260506014541 15 0 0.0 4.8 0.00 0.00 0.00 83 1009.7